Location: Newark
(45.0500°N, 41.9667°E)
Time: 22:58:28
(UTC+00:00)

Starlink (trailer) - Pass Details

Date: 22 July 2019
Orbit: 549 x 550 km, 53.0° (Epoch: 20 August)

Event Time Altitude Azimuth Distance (km) Brightness Sun altitude
Exits shadow 21:21:21 25° 79° (ENE) 1,135 5.3 -24.8°
Drops below altitude 10° 21:23:16 10° 66° (ENE) 1,826 6.6 -24.7°
Sets 21:25:34 0° 60° (ENE) 2,723 7.6 -24.7°
